Regional Weather Roundup
Issued by NWS Cleveland, OH

Home | Current Version | Previous Version | Graphics & Text | Print | Product List | Glossary On
Versions: 1 2 3 4 5 6 7 8 9 10 11 12 13 14 15 16 17 18 19 20 21 22 23 24 25 26 27 28 29 30 31 32 33 34 35 36 37 38 39 40 41 42 43 44 45 46 47 48 49 50
000
ASUS41 KCLE 221200
RWRCLE
OHIO REGIONAL WEATHER ROUNDUP
NATIONAL WEATHER SERVICE WILMINGTON, OH
700 AM EST MON DEC 22 2014

NOTE: "FAIR" INDICATES FEW OR NO CLOUDS BELOW 12,000 FEET WITH NO
SIGNIFICANT WEATHER AND/OR OBSTRUCTIONS TO VISIBILITY.

OHZ001>008-015>018-024>027-034-035-043-044-221300-
   NORTHWEST OHIO

CITY           SKY/WX    TMP DP  RH WIND       PRES   REMARKS
DEFIANCE       MOCLDY    25  21  85 E6        30.07S FOG     WCI  18
FINDLAY        CLEAR     25  21  85 E6        30.06R FOG     WCI  18
TOLEDO EXPRESS CLEAR     22  19  89 E3        30.08F FOG
TOLEDO METCALF CLEAR     24  19  81 E7        30.09F HAZE    WCI  16
LIMA           PTCLDY    27  22  81 SE7       30.04R HAZE    WCI  19
$$

OHZ009>014-019>023-028>033-038-089-221300-
   NORTHEAST OHIO

CITY           SKY/WX    TMP DP  RH WIND       PRES   REMARKS
CLE-HOPKINS    MOCLDY    25  20  81 E5        30.12F WCI  19
CLE-LAKEFRONT  CLOUDY    28  22  78 SE8       30.10F WCI  20
CUY CO. ARPT   PTCLDY    28  23  80 SE6       30.11  WCI  22
LORAIN-ELYRIA  PTCLDY    22  20  92 SE5       30.10F WCI  16
ASHTABULA      PTCLDY    26  21  81 SE7       30.14S WCI  18
AKRON-CANTON   MOCLDY    24  19  81 E6        30.09S FOG     WCI  17
WOOSTER        NOT AVBL
MANSFIELD      CLEAR     21  19  92 S3        30.06R FOG
YOUNGSTOWN     CLOUDY    24  21  88 E9        30.11S WCI  14
$$

OHZ042-051>053-060>062-070>072-077>081-221300-
  SOUTHWEST OHIO

CITY           SKY/WX    TMP DP  RH WIND       PRES   REMARKS
CINC-COVINGTON CLOUDY    34  26  72 SE7       30.01S WCI  28
CINC-LUNKEN    CLOUDY    30  29  96 CALM      30.05R
HAMILTON       CLOUDY    32  29  88 CALM      30.04S
DAYTON         NOT AVBL
WRIGHT-PAT AFB NOT AVBL
DAYTON GENERAL CLOUDY    31  26  82 E7        30.01F WCI  24
WILMINGTON     CLOUDY    29  25  85 E7        30.03S FOG     WCI  22
$$

OHZ036-037-039>041-045>050-054>059-063>069-073>076-082>088-221300-
  CENTRAL AND SOUTHEAST OHIO

CITY           SKY/WX    TMP DP  RH WIND       PRES   REMARKS
COLUMBUS       CLOUDY    29  24  82 E5        30.06S WCI  24
OSU AIRPORT    CLOUDY    27  24  89 NE3       30.06R FOG
BOLTON FIELD   NOT AVBL
RICKENBACK AFB NOT AVBL
NEWARK         CLOUDY    25  21  85 VRB3      30.07S FOG
MARION         CLEAR     25  20  81 SE7       30.07R HAZE    WCI  17
LANCASTER      CLOUDY    31  24  75 CALM      30.06F HAZE
ZANESVILLE     MOCLDY    23  20  88 CALM      30.08S FOG
NEW PHILLY     PTCLDY    21  17  84 CALM      30.11S
$$


USA.gov is the U.S. government's official web portal to all federal, state and local government web resources and services.